Weather History for KJMS - December, 2012

Change the Weather History Date:

Wednesday, December 5, 2012

  Actual Average Record
Temperature  
Mean Temperature 28 °F 17 °F  
Max Temperature 40 °F 26 °F 61 °F (1939)
Min Temperature 15 °F 9 °F -23 °F (1950)
Degree Days  
Heating Degree Days 37 48  
Month to date heating degree days 171 234  
Since 1 July heating degree days 2226 2318  
Cooling Degree Days 0 0  
Month to date cooling degree days 0 0  
Year to date cooling degree days 575 446  
Moisture  
Dew Point 18 °F    
Average Humidity 68    
Maximum Humidity 80    
Minimum Humidity 56    
Precipitation  
Precipitation T in 0.01 in 1.07 in (1960)
Month to date precipitation 0.02 0.07  
Year to date precipitation 12.83 18.44  
Sea Level Pressure  
Sea Level Pressure 29.94 in    
Wind  
Wind Speed 11 mph (SSE)    
Max Wind Speed 20 mph    
Max Gust Speed 26 mph    
Visibility 10 miles    
Events      
T = Trace of Precipitation, MM = Missing Value Source: NWS Daily Summary

Daily Weather History Graph

Daily Weather History Graph

Search for Another Location

Airport or City:

Trip Planner

Search our weather history database for the weather conditions in past years. The results will help you decide how hot, cold, wet, or windy it might be!

Date:

Astronomy

Dec. 05, 2012 Rise Set
Actual Time 8:04 AM CST 4:46 PM CST
Civil Twilight 7:29 AM CST 5:21 PM CST
Nautical Twilight 6:51 AM CST 5:59 PM CST
Astronomical Twilight 6:14 AM CST 6:36 PM CST
Moon 11:57 PM CST (12/5) 12:11 PM CST (12/5)
Length of Visible Light 9h 51m
Length of Day
8h 41m
Waning Gibbous, 59% of the Moon is Illuminated
Dec 5
Waning Gibbous
Dec 6
Last Quarter
Dec 13
New
Dec 19
First Quarter
Dec 28
Full

Hourly Weather History & Observations

Time (CST) Temp. Windchill Dew Point Humidity Pressure Visibility Wind Dir Wind Speed Gust Speed Precip Events Conditions
12:56 AM 16.0 °F 3.6 °F 10.0 °F 77% 30.31 in 10.0 mi SE 10.4 mph - N/A   Clear
1:56 AM 15.1 °F 2.5 °F 10.0 °F 80% 30.29 in 10.0 mi SE 10.4 mph - N/A   Clear
2:56 AM 15.1 °F 1.8 °F 10.0 °F 80% 30.26 in 10.0 mi SE 11.5 mph - N/A   Clear
3:56 AM 16.0 °F 2.3 °F 10.9 °F 81% 30.22 in 10.0 mi SE 12.7 mph - N/A   Clear
4:56 AM 17.1 °F 6.6 °F 10.9 °F 77% 30.19 in 10.0 mi SE 8.1 mph - N/A   Clear
5:56 AM 17.1 °F 3.0 °F 12.0 °F 81% 30.14 in 10.0 mi SSE 13.8 mph - N/A   Clear
6:56 AM 19.0 °F 5.0 °F 12.9 °F 77% 30.11 in 10.0 mi SSE 15.0 mph - N/A   Clear
8:56 AM 19.9 °F 6.7 °F 14.0 °F 78% 30.05 in 10.0 mi SSE 13.8 mph - N/A   Clear
9:56 AM 21.9 °F 8.7 °F 15.1 °F 75% 30.02 in 10.0 mi SE 15.0 mph - N/A   Clear
10:56 AM 27.0 °F 16.1 °F 17.1 °F 66% 29.97 in 10.0 mi SSE 12.7 mph 21.9 mph N/A   Clear
11:56 AM 30.0 °F 18.7 °F 19.0 °F 64% 29.91 in 10.0 mi SSE 16.1 mph 23.0 mph N/A   Clear
12:56 PM 32.0 °F 21.2 °F 21.0 °F 64% 29.87 in 10.0 mi SSE 16.1 mph 24.2 mph N/A   Clear
1:56 PM 34.0 °F 24.6 °F 21.0 °F 59% 29.82 in 10.0 mi SSE 13.8 mph - N/A   Clear
2:56 PM 35.1 °F 26.4 °F 21.9 °F 59% 29.78 in 10.0 mi SSE 12.7 mph - N/A   Clear
3:56 PM 32.0 °F 23.0 °F 19.9 °F 61% 29.78 in 10.0 mi SSE 11.5 mph - N/A   Clear
4:56 PM 30.9 °F 24.3 °F 21.0 °F 67% 29.77 in 10.0 mi South 6.9 mph - N/A   Scattered Clouds
5:56 PM 30.0 °F 22.4 °F 19.9 °F 66% 29.73 in 10.0 mi SSE 8.1 mph - N/A   Mostly Cloudy
6:56 PM 30.0 °F 23.2 °F 21.0 °F 69% 29.72 in 10.0 mi SSE 6.9 mph - N/A   Overcast
7:56 PM 32.0 °F 24.8 °F 21.9 °F 66% 29.73 in 10.0 mi SW 8.1 mph - N/A   Overcast
8:56 PM 32.0 °F 26.4 °F 23.0 °F 69% 29.70 in 10.0 mi SSE 5.8 mph - 0.00 in   Overcast
9:56 PM 33.1 °F 28.7 °F 26.1 °F 75% 29.71 in 10.0 mi WSW 4.6 mph - 0.00 in   Overcast
10:56 PM 39.0 °F 31.8 °F 28.0 °F 65% 29.71 in 10.0 mi West 11.5 mph - N/A   Clear
11:56 PM 39.0 °F 29.9 °F 27.0 °F 62% 29.72 in 10.0 mi West 17.3 mph - N/A   Clear